BEIDOU 19 (C58)

Last updated on Dec. 12, 2019, 4:25 a.m. UTC

1 40749U 15037B   19345.32740956 -.00000061  00000-0  00000+0 0  9995
2 40749  55.8884  22.7213 0006523 282.0339 108.0779  1.86234222 29793
UTC
Height (km)
Latitude
Longitude
Inclination
Orbital Period
UTC large
Height (km)
Speed (km/s)
/
Latitude / Longitude
Inclination (degrees)
Orbital Period (minutes)
Azimuth
Elevation
Range (km)
Doppler Factor
iOS Compass Heading
iOS Angle

Next 30 passes for location: Hong Kong

Rise time Rise Azimuth (degrees) Set time Set Azimuth (degrees) Duration Max altitude (degrees)

No matching passes for this satellites